IK5NLA Weather Reports


time (UTC)temp
C
wind
direction
speed
KPH
gust
KPH
rain 1hr
cm
rain 24hr
cm
rain mn
cm
humidity
%
barometer
mb
20260507192830 13 296 6.4 9.7 0.00 0.00 0.00 61 1013.2
20260507192721 13 298 6.4 9.7 0.00 0.00 0.00 61 1013.2
20260507192613 13 299 6.4 12.9 0.00 0.00 0.00 61 1013.2
20260507192526 13 299 6.4 12.9 0.00 0.00 0.00 61 1013.2
20260507192423 12 299 6.4 12.9 0.00 0.00 0.00 61 1013.2
20260507192334 12 299 6.4 12.9 0.00 0.00 0.00 63 1013.2
20260507192226 12 299 8.0 12.9 0.00 0.00 0.00 62 1013.2
20260507192139 12 299 8.0 12.9 0.00 0.00 0.00 63 1013.2
20260507192051 12 299 9.7 12.9 0.00 0.00 0.00 63 1013.2
20260507191921 12 297 8.0 12.9 0.00 0.00 0.00 63 1013.2
20260507191833 12 298 9.7 12.9 0.00 0.00 0.00 62 1013.2
20260507191748 12 307 11.3 12.9 0.00 0.00 0.00 61 1013.2
20260507191619 12 304 11.3 12.9 0.00 0.00 0.00 60 1013.1
20260507191531 12 306 11.3 12.9 0.00 0.00 0.00 61 1013.1
20260507191422 12 304 11.3 12.9 0.00 0.00 0.00 61 1013.1
20260507191315 13 306 11.3 12.9 0.00 0.00 0.00 62 1013.1
20260507191227 13 310 9.7 12.9 0.00 0.00 0.00 61 1013.1
20260507191124 13 307 6.4 12.9 0.00 0.00 0.00 61 1013.1
20260507191015 13 307 6.4 12.9 0.00 0.00 0.00 62 1013.1
20260507190928 13 323 6.4 12.9 0.00 0.00 0.00 62 1013.1
20260507190820 13 331 9.7 12.9 0.00 0.00 0.00 63 1013.1
20260507190715 13 309 9.7 12.9 0.00 0.00 0.00 62 1013.0
20260507190647 13 312 9.7 12.9 0.00 0.00 0.00 62 1013.0
20260507190518 13 300 8.0 11.3 0.00 0.00 0.00 62 1013.0
20260507190429 13 296 6.4 11.3 0.00 0.00 0.00 60 1012.9
20260507190342 13 291 4.8 11.3 0.00 0.00 0.00 60 1012.9
20260507190213 13 284 3.2 9.7 0.00 0.00 0.00 60 1012.9
20260507190145 13 284 3.2 6.4 0.00 0.00 0.00 61 1012.9
20260507190021 13 284 3.2 6.4 0.00 0.00 0.00 60 1012.9
20260507185912 13 284 3.2 6.4 0.00 0.00 0.00 60 1012.9
20260507185825 13 284 4.8 8.0 0.00 0.00 0.00 60 1012.9
20260507185737 13 284 3.2 8.0 0.00 0.00 0.00 59 1012.9
20260507185648 13 284 3.2 8.0 0.00 0.00 0.00 59 1012.9
20260507185539 13 284 1.6 8.0 0.00 0.00 0.00 59 1012.9
20260507185414 13 284 1.6 8.0 0.00 0.00 0.00 58 1012.9
20260507185326 13 284 1.6 8.0 0.00 0.00 0.00 56 1012.9
20260507185218 14 284 3.2 8.0 0.00 0.00 0.00 56 1012.9
20260507185131 14 284 3.2 8.0 0.00 0.00 0.00 56 1012.9
20260507185023 14 284 4.8 11.3 0.00 0.00 0.00 56 1012.8
20260507184915 14 284 4.8 11.3 0.00 0.00 0.00 56 1012.9
20260507184831 14 284 4.8 11.3 0.00 0.00 0.00 57 1012.9
20260507184723 14 279 4.8 11.3 0.00 0.00 0.00 56 1012.8
20260507184613 14 279 6.4 12.9 0.00 0.00 0.00 56 1012.9
20260507184525 14 279 6.4 12.9 0.00 0.00 0.00 57 1012.9
20260507184438 14 279 6.4 12.9 0.00 0.00 0.00 57 1012.8
20260507184312 14 278 6.4 12.9 0.00 0.00 0.00 58 1012.9
20260507184225 14 278 8.0 12.9 0.00 0.00 0.00 59 1012.9
20260507184117 13 278 8.0 12.9 0.00 0.00 0.00 61 1012.8
20260507184030 13 287 9.7 12.9 0.00 0.00 0.00 62 1012.8
20260507183941 13 294 9.7 12.9 0.00 0.00 0.00 63 1012.8
20260507183813 13 283 9.7 12.9 0.00 0.00 0.00 64 1012.8
20260507183730 13 285 11.3 12.9 0.00 0.00 0.00 65 1012.8
20260507183622 14 287 11.3 12.9 0.00 0.00 0.00 65 1012.9
20260507183513 14 286 9.7 11.3 0.00 0.00 0.00 65 1012.8
20260507183426 14 286 9.7 11.3 0.00 0.00 0.00 64 1012.8
20260507183318 14 283 9.7 11.3 0.00 0.00 0.00 63 1012.8
20260507183212 14 283 9.7 11.3 0.00 0.00 0.00 63 1012.8
20260507183146 14 282 9.7 12.9 0.00 0.00 0.00 63 1012.8
20260507183016 15 284 9.7 12.9 0.00 0.00 0.00 63 1012.7
20260507182928 15 284 9.7 12.9 0.00 0.00 0.00 62 1012.7
20260507182819 15 284 8.0 12.9 0.00 0.00 0.00 62 1012.7
20260507182714 15 277 8.0 12.9 0.00 0.00 0.00 61 1012.8
20260507182648 15 276 6.4 12.9 0.00 0.00 0.00 61 1012.8
20260507182538 15 274 6.4 12.9 0.00 0.00 0.00 61 1012.8
20260507182429 15 275 6.4 12.9 0.00 0.00 0.00 61 1012.8
20260507182319 15 275 8.0 14.5 0.00 0.00 0.00 61 1012.8
20260507182231 15 275 8.0 14.5 0.00 0.00 0.00 61 1012.8
20260507182121 15 268 8.0 14.5 0.00 0.00 0.00 61 1012.8
20260507182038 15 269 8.0 14.5 0.00 0.00 0.00 61 1012.9
20260507181929 15 263 8.0 14.5 0.00 0.00 0.00 62 1012.9
20260507181821 15 265 8.0 14.5 0.00 0.00 0.00 62 1012.9
20260507181731 15 265 9.7 14.5 0.00 0.00 0.00 62 1012.8
20260507181622 15 279 8.0 16.1 0.00 0.00 0.00 62 1012.8
20260507181515 15 266 9.7 16.1 0.00 0.00 0.00 62 1012.8
20260507181431 15 269 9.7 16.1 0.00 0.00 0.00 62 1012.8
20260507181322 15 279 9.7 16.1 0.00 0.00 0.00 63 1012.8
20260507181215 15 269 9.7 16.1 0.00 0.00 0.00 63 1012.8
20260507181127 15 271 9.7 16.1 0.00 0.00 0.00 63 1012.8
20260507181039 15 275 9.7 16.1 0.00 0.00 0.00 63 1012.8
20260507180933 15 265 9.7 16.1 0.00 0.00 0.00 63 1012.7
20260507180820 15 269 11.3 16.1 0.00 0.00 0.00 63 1012.8
20260507180730 15 266 11.3 16.1 0.00 0.00 0.00 63 1012.7
20260507180623 15 267 9.7 12.9 0.00 0.00 0.00 64 1012.8
20260507180513 15 265 9.7 12.9 0.00 0.00 0.00 65 1012.8
20260507180446 15 260 8.0 12.9 0.00 0.00 0.00 65 1012.8
20260507180314 15 254 9.7 14.5 0.00 0.00 0.00 65 1012.8
20260507180226 15 255 8.0 14.5 0.00 0.00 0.00 64 1012.8
20260507180114 15 257 6.4 16.1 0.00 0.00 0.00 67 1012.8
20260507180027 15 271 4.8 16.1 0.00 0.00 0.00 65 1012.8
20260507175918 15 279 6.4 16.1 0.00 0.00 0.00 64 1012.7
20260507175829 15 279 8.0 16.1 0.00 0.00 0.00 64 1012.7
20260507175719 15 271 8.0 16.1 0.00 0.00 0.00 64 1012.7
20260507175616 15 271 8.0 16.1 0.00 0.00 0.00 64 1012.7
20260507175549 15 273 8.0 16.1 0.00 0.00 0.00 64 1012.7
20260507175417 15 273 9.7 16.1 0.00 0.00 0.00 64 1012.6
20260507175326 15 275 11.3 16.1 0.00 0.00 0.00 65 1012.6
20260507175217 15 260 11.3 16.1 0.00 0.00 0.00 65 1012.6
20260507175127 15 272 11.3 16.1 0.00 0.00 0.00 65 1012.6
20260507175023 15 275 9.7 16.1 0.00 0.00 0.00 66 1012.6
20260507174913 15 273 9.7 16.1 0.00 0.00 0.00 66 1012.6
20260507174824 15 266 8.0 16.1 0.00 0.00 0.00 67 1012.6
20260507174736 15 279 8.0 16.1 0.00 0.00 0.00 67 1012.5
20260507174626 15 268 8.0 16.1 0.00 0.00 0.00 68 1012.5
20260507174539 15 261 9.7 19.3 0.00 0.00 0.00 67 1012.5
20260507174413 15 262 11.3 19.3 0.00 0.00 0.00 67 1012.6
20260507174324 15 260 11.3 19.3 0.00 0.00 0.00 67 1012.6
20260507174216 15 266 11.3 19.3 0.00 0.00 0.00 67 1012.6
20260507174127 15 290 9.7 19.3 0.00 0.00 0.00 67 1012.6
20260507174020 15 259 8.0 19.3 0.00 0.00 0.00 67 1012.6
20260507173914 15 271 9.7 19.3 0.00 0.00 0.00 67 1012.5
20260507173826 15 273 9.7 19.3 0.00 0.00 0.00 67 1012.5
20260507173718 15 273 12.9 19.3 0.00 0.00 0.00 67 1012.6
20260507173630 15 267 12.9 19.3 0.00 0.00 0.00 67 1012.6
20260507173542 15 266 11.3 19.3 0.00 0.00 0.00 67 1012.6
20260507173417 15 271 11.3 19.3 0.00 0.00 0.00 66 1012.6
20260507173327 15 270 11.3 19.3 0.00 0.00 0.00 66 1012.6
20260507173218 15 254 12.9 19.3 0.00 0.00 0.00 66 1012.5
20260507173130 15 275 12.9 19.3 0.00 0.00 0.00 66 1012.4
20260507173022 15 270 12.9 19.3 0.00 0.00 0.00 66 1012.4
20260507172953 15 267 12.9 19.3 0.00 0.00 0.00 67 1012.4
20260507172827 15 257 11.3 17.7 0.00 0.00 0.00 67 1012.4
20260507172719 15 273 11.3 17.7 0.00 0.00 0.00 67 1012.4
20260507172623 15 259 11.3 17.7 0.00 0.00 0.00 66 1012.3
20260507172516 15 265 11.3 19.3 0.00 0.00 0.00 66 1012.3
20260507172446 15 243 9.7 19.3 0.00 0.00 0.00 67 1012.3
20260507172315 15 257 8.0 19.3 0.00 0.00 0.00 66 1012.2
20260507172231 15 267 9.7 19.3 0.00 0.00 0.00 66 1012.2
20260507172142 15 271 8.0 19.3 0.00 0.00 0.00 66 1012.3
20260507172012 15 263 9.7 19.3 0.00 0.00 0.00 66 1012.3
20260507171925 15 259 11.3 19.3 0.00 0.00 0.00 66 1012.3
20260507171817 15 260 12.9 19.3 0.00 0.00 0.00 66 1012.3
20260507171749 15 261 11.3 19.3 0.00 0.00 0.00 67 1012.3
20260507171623 15 259 12.9 19.3 0.00 0.00 0.00 67 1012.3
20260507171514 15 273 9.7 17.7 0.00 0.00 0.00 67 1012.3
20260507171423 15 279 8.0 17.7 0.00 0.00 0.00 67 1012.3
20260507171316 15 262 8.0 17.7 0.00 0.00 0.00 67 1012.4
20260507171247 15 251 8.0 17.7 0.00 0.00 0.00 67 1012.4
20260507171115 15 267 8.0 17.7 0.00 0.00 0.00 68 1012.3
20260507171026 15 259 9.7 17.7 0.00 0.00 0.00 66 1012.3
20260507170922 15 302 11.3 17.7 0.00 0.00 0.00 66 1012.4
20260507170813 15 261 11.3 17.7 0.00 0.00 0.00 66 1012.4
20260507170723 15 236 11.3 17.7 0.00 0.00 0.00 66 1012.4
20260507170614 15 271 8.0 17.7 0.00 0.00 0.00 67 1012.4
20260507170525 15 248 8.0 14.5 0.00 0.00 0.00 66 1012.4
20260507170421 15 207 9.7 14.5 0.00 0.00 0.00 66 1012.4
20260507170331 15 225 9.7 16.1 0.00 0.00 0.00 67 1012.4
20260507170222 15 281 8.0 16.1 0.00 0.00 0.00 68 1012.4
20260507170113 15 222 8.0 17.7 0.00 0.00 0.00 67 1012.4
20260507170025 16 257 8.0 17.7 0.00 0.00 0.00 67 1012.4
20260507165917 16 244 8.0 17.7 0.00 0.00 0.00 67 1012.4
20260507165813 16 234 6.4 17.7 0.00 0.00 0.00 67 1012.4
20260507165723 16 267 6.4 17.7 0.00 0.00 0.00 67 1012.4
20260507165615 16 248 9.7 17.7 0.00 0.00 0.00 67 1012.4
20260507165527 16 263 11.3 17.7 0.00 0.00 0.00 67 1012.4
20260507165419 16 215 11.3 17.7 0.00 0.00 0.00 66 1012.4
20260507165315 16 225 11.3 17.7 0.00 0.00 0.00 67 1012.4
20260507165227 16 187 11.3 17.7 0.00 0.00 0.00 66 1012.4
20260507165118 16 219 8.0 12.9 0.00 0.00 0.00 66 1012.4
20260507165031 16 190 6.4 12.9 0.00 0.00 0.00 68 1012.4
20260507164923 16 234 4.8 11.3 0.00 0.00 0.00 68 1012.4
20260507164819 16 207 3.2 16.1 0.00 0.00 0.00 68 1012.4
20260507164731 16 206 1.6 17.7 0.00 0.00 0.00 67 1012.4
20260507164624 16 205 3.2 17.7 0.00 0.00 0.00 67 1012.4
20260507164516 16 206 4.8 17.7 0.00 0.00 0.00 66 1012.4
20260507164427 16 206 4.8 17.7 0.00 0.00 0.00 65 1012.4
20260507164341 16 196 6.4 17.7 0.00 0.00 0.00 64 1012.4
20260507164232 16 263 8.0 17.7 0.00 0.00 0.00 64 1012.4
20260507164123 16 275 8.0 17.7 0.00 0.00 0.00 64 1012.4
20260507164015 16 271 9.7 24.1 0.00 0.00 0.00 64 1012.4
20260507163927 16 277 12.9 24.1 0.00 0.00 0.00 64 1012.4
20260507163822 16 238 12.9 24.1 0.00 0.00 0.00 64 1012.4
20260507163734 16 218 11.3 24.1 0.00 0.00 0.00 63 1012.4
20260507163624 16 210 11.3 24.1 0.00 0.00 0.00 63 1012.4
20260507163517 16 231 9.7 24.1 0.00 0.00 0.00 63 1012.4
20260507163429 16 244 8.0 24.1 0.00 0.00 0.00 63 1012.4
20260507163342 16 254 9.7 24.1 0.00 0.00 0.00 63 1012.4
20260507163216 16 213 11.3 24.1 0.00 0.00 0.00 63 1012.4
20260507163148 17 240 11.3 24.1 0.00 0.00 0.00 62 1012.4
20260507163018 17 234 9.7 22.5 0.00 0.00 0.00 62 1012.5
20260507162950 17 259 9.7 22.5 0.00 0.00 0.00 62 1012.4
20260507162821 17 229 9.7 22.5 0.00 0.00 0.00 62 1012.4
20260507162713 17 184 9.7 22.5 0.00 0.00 0.00 61 1012.4
20260507162645 17 165 11.3 22.5 0.00 0.00 0.00 61 1012.4
20260507162520 17 232 9.7 22.5 0.00 0.00 0.00 62 1012.4
20260507162452 17 227 9.7 16.1 0.00 0.00 0.00 62 1012.4
20260507162344 17 254 11.3 16.1 0.00 0.00 0.00 62 1012.4
20260507162232 17 229 11.3 17.7 0.00 0.00 0.00 61 1012.3
20260507162125 17 188 9.7 16.1 0.00 0.00 0.00 61 1012.3
20260507162014 17 216 8.0 17.7 0.00 0.00 0.00 61 1012.3
20260507161930 17 191 9.7 17.7 0.00 0.00 0.00 61 1012.3
20260507161842 17 248 9.7 17.7 0.00 0.00 0.00 61 1012.4
20260507161712 17 223 8.0 17.7 0.00 0.00 0.00 61 1012.4
20260507161625 17 187 6.4 17.7 0.00 0.00 0.00 61 1012.4
20260507161516 17 187 8.0 24.1 0.00 0.00 0.00 61 1012.3
20260507161448 17 220 9.7 24.1 0.00 0.00 0.00 61 1012.3
20260507161343 17 219 9.7 24.1 0.00 0.00 0.00 61 1012.3
20260507161251 17 220 11.3 24.1 0.00 0.00 0.00 61 1012.4
20260507161120 17 184 11.3 24.1 0.00 0.00 0.00 61 1012.3
20260507161052 17 190 9.7 24.1 0.00 0.00 0.00 60 1012.3
20260507160942 17 200 8.0 24.1 0.00 0.00 0.00 61 1012.3
20260507160852 17 189 8.0 24.1 0.00 0.00 0.00 61 1012.3
20260507160722 17 208 11.3 24.1 0.00 0.00 0.00 60 1012.3
20260507160618 17 239 14.5 22.5 0.00 0.00 0.00 60 1012.2
20260507160529 17 186 12.9 22.5 0.00 0.00 0.00 60 1012.2
20260507160422 17 188 14.5 22.5 0.00 0.00 0.00 60 1012.2
20260507160353 17 180 12.9 22.5 0.00 0.00 0.00 60 1012.2
20260507160223 17 205 12.9 22.5 0.00 0.00 0.00 60 1012.3
20260507160120 17 193 12.9 27.4 0.00 0.00 0.00 59 1012.3
20260507160030 17 186 12.9 27.4 0.00 0.00 0.00 59 1012.3
20260507155922 17 225 11.3 27.4 0.00 0.00 0.00 59 1012.3
20260507155813 17 227 11.3 27.4 0.00 0.00 0.00 59 1012.3
20260507155724 17 184 11.3 27.4 0.00 0.00 0.00 59 1012.3
20260507155635 17 196 9.7 27.4 0.00 0.00 0.00 59 1012.3
20260507155531 17 218 9.7 27.4 0.00 0.00 0.00 59 1012.3
20260507155423 17 182 12.9 27.4 0.00 0.00 0.00 59 1012.3
20260507155315 17 203 17.7 27.4 0.00 0.00 0.00 59 1012.3
20260507155226 17 188 17.7 27.4 0.00 0.00 0.00 58 1012.3
20260507155139 17 189 16.1 25.7 0.00 0.00 0.00 58 1012.2
20260507155049 17 187 16.1 25.7 0.00 0.00 0.00 58 1012.3
20260507154944 17 201 12.9 25.7 0.00 0.00 0.00 58 1012.2
20260507154816 17 188 12.9 25.7 0.00 0.00 0.00 59 1012.2
20260507154727 17 219 16.1 25.7 0.00 0.00 0.00 58 1012.2
20260507154617 17 190 17.7 25.7 0.00 0.00 0.00 58 1012.2
20260507154529 17 163 14.5 25.7 0.00 0.00 0.00 57 1012.2
20260507154445 17 196 12.9 20.9 0.00 0.00 0.00 58 1012.1
20260507053616 10 178 3.2 11.3 0.00 0.00 0.00 93 1012.8
20260507053512 10 178 3.2 11.3 0.00 0.00 0.00 93 1012.7
20260507053424 10 178 3.2 12.9 0.00 0.00 0.00 93 1012.7
20260507053316 10 178 4.8 12.9 0.00 0.00 0.00 93 1012.7
20260507053228 10 178 4.8 12.9 0.00 0.00 0.00 93 1012.7
20260507053120 10 178 4.8 12.9 0.00 0.00 0.00 93 1012.7
20260507053032 10 182 4.8 12.9 0.00 0.00 0.00 93 1012.7
20260507052948 10 182 4.8 12.9 0.00 0.00 0.00 93 1012.7
20260507052820 10 182 6.4 12.9 0.00 0.00 0.00 93 1012.6
20260507052752 10 185 6.4 12.9 0.00 0.00 0.00 93 1012.7
20260507052624 10 180 6.4 12.9 0.00 0.00 0.00 93 1012.6
20260507052535 10 180 8.0 12.9 0.00 0.00 0.00 93 1012.6
20260507052445 10 180 8.0 12.9 0.00 0.00 0.00 93 1012.6
20260507052315 10 180 6.4 11.3 0.00 0.00 0.00 93 1012.7
20260507052231 10 180 8.0 11.3 0.00 0.00 0.00 93 1012.7
20260507052123 10 173 8.0 11.3 0.00 0.00 0.00 93 1012.7
20260507052015 10 172 6.4 11.3 0.00 0.00 0.00 93 1012.6
20260507051927 10 184 4.8 8.0 0.00 0.00 0.00 93 1012.6
20260507051819 10 190 4.8 11.3 0.00 0.00 0.00 93 1012.6
20260507051735 10 190 4.8 11.3 0.00 0.00 0.00 93 1012.6
20260507051626 10 190 4.8 11.3 0.00 0.00 0.00 93 1012.6
20260507051519 10 190 1.6 11.3 0.00 0.00 0.00 93 1012.6
20260507051451 10 190 1.6 11.3 0.00 0.00 0.00 93 1012.6
20260507051322 10 191 1.6 11.3 0.00 0.00 0.00 93 1012.5
20260507051214 10 190 1.6 16.1 0.00 0.00 0.00 93 1012.6
20260507051131 10 190 3.2 16.1 0.00 0.00 0.00 93 1012.6
20260507051044 10 190 6.4 16.1 0.00 0.00 0.00 93 1012.5
20260507050915 10 192 6.4 16.1 0.00 0.00 0.00 93 1012.4
20260507050824 10 238 4.8 16.1 0.00 0.00 0.00 93 1012.4
20260507050717 10 192 3.2 16.1 0.00 0.00 0.00 93 1012.4
20260507050628 10 192 3.2 16.1 0.00 0.00 0.00 93 1012.4
20260507050524 10 192 3.2 16.1 0.00 0.00 0.00 93 1012.4
20260507050415 10 221 8.0 16.1 0.00 0.00 0.00 93 1012.4
20260507050348 10 239 9.7 16.1 0.00 0.00 0.00 93 1012.4
20260507050220 10 190 8.0 17.7 0.00 0.00 0.00 93 1012.4
20260507050153 10 109 4.8 11.3 0.00 0.00 0.00 93 1012.3
20260507050022 10 179 4.8 11.3 0.00 0.00 0.00 93 1012.3
20260507045917 10 179 6.4 11.3 0.00 0.00 0.00 93 1012.3
20260507045830 10 184 6.4 11.3 0.00 0.00 0.00 93 1012.4
20260507045722 10 184 6.4 11.3 0.00 0.00 0.00 93 1012.3
20260507045613 10 166 6.4 11.3 0.00 0.00 0.00 93 1012.3
20260507045525 10 158 6.4 11.3 0.00 0.00 0.00 93 1012.3
20260507045421 9 178 6.4 12.9 0.00 0.00 0.00 93 1012.2
20260507045333 9 178 4.8 12.9 0.00 0.00 0.00 93 1012.2
20260507045246 9 121 4.8 11.3 0.00 0.00 0.00 93 1012.2
20260507045115 9 153 3.2 11.3 0.00 0.00 0.00 93 1012.2
20260507045047 9 151 3.2 11.3 0.00 0.00 0.00 93 1012.2
20260507044918 9 142 3.2 6.4 0.00 0.00 0.00 93 1012.2
20260507044851 9 141 3.2 9.7 0.00 0.00 0.00 93 1012.2
20260507044726 9 119 3.2 9.7 0.00 0.00 0.00 93 1012.2
20260507044617 9 117 1.6 9.7 0.00 0.00 0.00 93 1012.2
20260507044529 9 117 1.6 9.7 0.00 0.00 0.00 93 1012.2
20260507044421 9 117 1.6 9.7 0.00 0.00 0.00 93 1012.2
20260507044312 9 117 1.6 9.7 0.00 0.00 0.00 93 1012.2
20260507044228 9 117 1.6 9.7 0.00 0.00 0.00 93 1012.2
20260507044140 9 117 1.6 9.7 0.00 0.00 0.00 93 1012.2
20260507044031 9 117 3.2 9.7 0.00 0.00 0.00 93 1012.2
20260507043922 9 117 4.8 9.7 0.00 0.00 0.00 93 1012.2
20260507043814 9 115 3.2 6.4 0.00 0.00 0.00 93 1012.2
20260507043725 9 121 1.6 6.4 0.00 0.00 0.00 93 1012.2
20260507043636 9 121 1.6 11.3 0.00 0.00 0.00 93 1012.2
20260507043552 9 121 1.6 11.3 0.00 0.00 0.00 93 1012.2
20260507043423 9 121 1.6 11.3 0.00 0.00 0.00 93 1012.2
20260507043315 9 121 3.2 11.3 0.00 0.00 0.00 93 1012.1
20260507043228 9 121 3.2 11.3 0.00 0.00 0.00 93 1012.1
20260507043121 9 121 3.2 11.3 0.00 0.00 0.00 93 1012.2
20260507043036 9 121 1.6 11.3 0.00 0.00 0.00 93 1012.1
20260507042928 9 119 3.2 11.3 0.00 0.00 0.00 93 1012.1
20260507042821 9 119 4.8 11.3 0.00 0.00 0.00 93 1012.1
20260507042713 9 119 6.4 11.3 0.00 0.00 0.00 93 1012.1
20260507042645 9 119 6.4 11.3 0.00 0.00 0.00 93 1012.1
20260507042516 9 119 4.8 9.7 0.00 0.00 0.00 93 1012.1
20260507042433 9 125 3.2 12.9 0.00 0.00 0.00 93 1012.1
20260507042324 9 123 4.8 14.5 0.00 0.00 0.00 93 1012.1
20260507042217 10 123 6.4 16.1 0.00 0.00 0.00 93 1012.0
20260507042128 10 123 4.8 16.1 0.00 0.00 0.00 93 1012.1
20260507042020 10 169 4.8 16.1 0.00 0.00 0.00 93 1012.1
20260507041917 10 169 4.8 16.1 0.00 0.00 0.00 93 1012.1
20260507041829 10 169 4.8 16.1 0.00 0.00 0.00 93 1012.1
20260507041741 10 169 6.4 16.1 0.00 0.00 0.00 93 1012.1
20260507041633 10 171 8.0 16.1 0.00 0.00 0.00 93 1012.0
20260507041524 10 186 9.7 16.1 0.00 0.00 0.00 93 1012.0
20260507041416 10 186 11.3 16.1 0.00 0.00 0.00 93 1012.0
20260507041312 10 188 9.7 16.1 0.00 0.00 0.00 93 1012.1
20260507041224 10 178 8.0 11.3 0.00 0.00 0.00 93 1012.1
20260507041117 10 179 6.4 11.3 0.00 0.00 0.00 93 1012.0
20260507041028 10 179 6.4 11.3 0.00 0.00 0.00 93 1012.0
20260507040923 10 179 4.8 11.3 0.00 0.00 0.00 93 1012.0
20260506234428 11 188 8.0 17.7 0.00 0.00 0.00 92 1012.2
20260506234321 11 185 4.8 9.7 0.00 0.00 0.00 92 1012.2
20260506234213 11 188 4.8 8.0 0.00 0.00 0.00 92 1012.1
20260506234127 11 188 4.8 12.9 0.00 0.00 0.00 92 1012.1
20260506234020 11 190 3.2 12.9 0.00 0.00 0.00 92 1012.1
20260506233916 11 190 3.2 14.5 0.00 0.00 0.00 92 1012.1
20260506233829 11 190 4.8 14.5 0.00 0.00 0.00 92 1012.0
20260506233721 11 190 4.8 14.5 0.00 0.00 0.00 92 1012.0
20260506233613 11 190 4.8 14.5 0.00 0.00 0.00 92 1012.1
20260506233524 11 190 4.8 14.5 0.00 0.00 0.00 92 1012.1
20260506233420 11 205 3.2 14.5 0.00 0.00 0.00 92 1012.1
20260506233353 11 205 4.8 14.5 0.00 0.00 0.00 92 1012.1
20260506233224 11 211 6.4 14.5 0.00 0.00 0.00 93 1012.1
20260506233116 11 211 9.7 14.5 0.00 0.00 0.00 93 1012.1
20260506233050 11 212 8.0 14.5 0.00 0.00 0.00 93 1012.1
20260506232921 11 186 8.0 14.5 0.00 0.00 0.00 92 1012.1
20260506232836 11 192 6.4 14.5 0.00 0.00 0.00 92 1012.1
20260506232727 11 192 6.4 14.5 0.00 0.00 0.00 92 1012.1
20260506232618 10 191 6.4 14.5 0.00 0.00 0.00 93 1012.1
20260506232531 10 244 6.4 14.5 0.00 0.00 0.00 93 1012.1
20260506232422 10 263 4.8 14.5 0.00 0.00 0.00 93 1012.1
20260506232314 10 250 4.8 14.5 0.00 0.00 0.00 93 1012.1
20260506232246 10 250 6.4 14.5 0.00 0.00 0.00 93 1012.1
20260506232122 10 250 6.4 14.5 0.00 0.00 0.00 92 1012.2
20260506232015 10 211 4.8 17.7 0.00 0.00 0.00 92 1012.1
20260506231927 10 210 6.4 17.7 0.00 0.00 0.00 92 1012.1
20260506231820 10 276 6.4 17.7 0.00 0.00 0.00 92 1012.2
20260506231717 10 279 6.4 17.7 0.00 0.00 0.00 92 1012.1
20260506231630 10 242 4.8 17.7 0.00 0.00 0.00 92 1012.1
20260506231524 10 244 6.4 17.7 0.00 0.00 0.00 92 1012.1
20260506231416 10 234 8.0 17.7 0.00 0.00 0.00 92 1012.2
20260506231328 10 236 9.7 17.7 0.00 0.00 0.00 92 1012.2
20260506231224 10 261 11.3 17.7 0.00 0.00 0.00 92 1012.2
20260506231116 10 225 9.7 17.7 0.00 0.00 0.00 93 1012.2
20260506231028 10 205 8.0 17.7 0.00 0.00 0.00 93 1012.2
20260506230920 10 211 4.8 17.7 0.00 0.00 0.00 93 1012.2
20260506230852 10 216 6.4 17.7 0.00 0.00 0.00 92 1012.2
20260506230744 10 213 6.4 17.7 0.00 0.00 0.00 92 1012.3
20260506230639 10 236 6.4 17.7 0.00 0.00 0.00 92 1012.3
20260506230531 10 215 6.4 17.7 0.00 0.00 0.00 92 1012.3
20260506230423 10 244 9.7 17.7 0.00 0.00 0.00 92 1012.3
20260506230316 10 249 12.9 17.7 0.00 0.00 0.00 92 1012.3
20260506230228 11 236 12.9 17.7 0.00 0.00 0.00 92 1012.3
20260506230125 11 227 11.3 16.1 0.00 0.00 0.00 92 1012.3
20260506230016 11 221 11.3 16.1 0.00 0.00 0.00 92 1012.3
20260506225928 11 207 12.9 16.1 0.00 0.00 0.00 92 1012.3
20260506225820 11 194 11.3 17.7 0.00 0.00 0.00 92 1012.2
20260506225752 11 212 9.7 17.7 0.00 0.00 0.00 92 1012.2
20260506225623 11 228 9.7 17.7 0.00 0.00 0.00 92 1012.2
20260506225520 11 221 11.3 17.7 0.00 0.00 0.00 92 1012.2
20260506225412 11 194 12.9 17.7 0.00 0.00 0.00 92 1012.1
20260506225346 11 219 11.3 17.7 0.00 0.00 0.00 92 1012.1
20260506225217 11 203 9.7 14.5 0.00 0.00 0.00 92 1012.1
20260506225129 11 197 8.0 14.5 0.00 0.00 0.00 92 1012.2
20260506225026 11 210 9.7 14.5 0.00 0.00 0.00 92 1012.1
20260506224919 11 180 8.0 12.9 0.00 0.00 0.00 92 1012.1
20260506224851 11 178 6.4 12.9 0.00 0.00 0.00 92 1012.1
20260506224722 11 182 4.8 11.3 0.00 0.00 0.00 92 1012.0
20260506224615 11 186 3.2 8.0 0.00 0.00 0.00 92 1012.1
20260506224532 11 186 3.2 8.0 0.00 0.00 0.00 92 1012.1
20260506224424 11 186 3.2 9.7 0.00 0.00 0.00 93 1012.0
20260506224337 11 186 4.8 12.9 0.00 0.00 0.00 92 1012.0
20260506224228 11 185 4.8 12.9 0.00 0.00 0.00 92 1012.0
20260506224119 11 188 4.8 12.9 0.00 0.00 0.00 92 1012.0
20260506224015 11 201 3.2 14.5 0.00 0.00 0.00 92 1012.1
20260506223926 11 202 3.2 14.5 0.00 0.00 0.00 93 1012.1
20260506223818 11 202 4.8 14.5 0.00 0.00 0.00 93 1012.1
20260506223730 11 202 4.8 14.5 0.00 0.00 0.00 93 1012.1
20260506223642 11 209 6.4 14.5 0.00 0.00 0.00 93 1012.0
20260506223516 11 209 6.4 14.5 0.00 0.00 0.00 93 1012.1
20260506223412 11 210 8.0 14.5 0.00 0.00 0.00 93 1012.1
20260506223325 11 198 8.0 14.5 0.00 0.00 0.00 93 1012.1
20260506223215 11 186 6.4 14.5 0.00 0.00 0.00 93 1012.0
20260506223127 11 212 6.4 14.5 0.00 0.00 0.00 93 1012.0
20260506223041 11 215 6.4 14.5 0.00 0.00 0.00 93 1012.0
20260506222931 11 191 4.8 12.9 0.00 0.00 0.00 93 1012.0
20260506222827 11 269 4.8 12.9 0.00 0.00 0.00 93 1012.0
20260506222719 11 272 6.4 12.9 0.00 0.00 0.00 93 1012.0
20260506222632 11 265 6.4 12.9 0.00 0.00 0.00 93 1012.0
20260506222524 11 262 6.4 12.9 0.00 0.00 0.00 93 1012.0
20260506222414 11 261 6.4 12.9 0.00 0.00 0.00 93 1012.1
20260506222326 11 240 6.4 16.1 0.00 0.00 0.00 93 1012.1
20260506222243 11 243 8.0 16.1 0.00 0.00 0.00 93 1012.1
20260506222114 10 257 8.0 16.1 0.00 0.00 0.00 93 1012.1
20260506222027 10 223 8.0 16.1 0.00 0.00 0.00 93 1012.1
20260506221919 10 217 8.0 16.1 0.00 0.00 0.00 93 1012.2
20260506221812 10 198 6.4 16.1 0.00 0.00 0.00 93 1012.2
20260506221729 10 189 6.4 19.3 0.00 0.00 0.00 93 1012.2
20260506221642 10 189 8.0 19.3 0.00 0.00 0.00 93 1012.2
20260506221513 10 246 9.7 19.3 0.00 0.00 0.00 93 1012.2
20260506221424 10 255 9.7 19.3 0.00 0.00 0.00 93 1012.2
20260506221316 10 250 8.0 19.3 0.00 0.00 0.00 93 1012.2
20260506221226 10 245 8.0 19.3 0.00 0.00 0.00 93 1012.2
20260506221143 11 204 9.7 19.3 0.00 0.00 0.00 93 1012.2
20260506221016 11 225 9.7 19.3 0.00 0.00 0.00 93 1012.2
20260506220928 11 221 11.3 19.3 0.00 0.00 0.00 93 1012.2
20260506220821 11 188 11.3 19.3 0.00 0.00 0.00 93 1012.2
20260506220713 11 182 9.7 19.3 0.00 0.00 0.00 92 1012.2
20260506220646 11 227 9.7 16.1 0.00 0.00 0.00 92 1012.2
20260506220521 11 227 9.7 16.1 0.00 0.00 0.00 92 1012.2
20260506220437 11 215 9.7 19.3 0.00 0.00 0.00 93 1012.2
20260506220326 11 183 9.7 19.3 0.00 0.00 0.00 93 1012.2
20260506220218 11 211 9.7 19.3 0.00 0.00 0.00 93 1012.2
20260506220131 11 218 9.7 19.3 0.00 0.00 0.00 93 1012.2
20260506220024 11 218 6.4 19.3 0.00 0.00 0.00 93 1012.2
20260506215916 11 205 9.7 19.3 0.00 0.00 0.00 93 1012.2
20260506215812 11 207 12.9 19.3 0.00 0.00 0.00 93 1012.2
20260506215725 11 206 14.5 19.3 0.00 0.00 0.00 93 1012.2
20260506215617 11 244 14.5 19.3 0.00 0.00 0.00 93 1012.2
20260506215529 11 225 12.9 19.3 0.00 0.00 0.00 93 1012.2
20260506215420 11 228 8.0 16.1 0.00 0.00 0.00 93 1012.2
20260506215335 11 211 9.7 16.1 0.00 0.00 0.00 93 1012.1
20260506215226 11 201 9.7 16.1 0.00 0.00 0.00 93 1012.1
20260506215136 11 198 9.7 16.1 0.00 0.00 0.00 93 1012.1
20260506215028 11 209 9.7 16.1 0.00 0.00 0.00 93 1012.1
20260506214920 11 226 9.7 16.1 0.00 0.00 0.00 93 1012.1
20260506214813 11 171 9.7 16.1 0.00 0.00 0.00 92 1012.1
20260506214729 11 221 8.0 17.7 0.00 0.00 0.00 92 1012.1
20260506214641 11 208 9.7 17.7 0.00 0.00 0.00 92 1012.1
20260506214512 11 189 9.7 17.7 0.00 0.00 0.00 92 1012.1
20260506214425 11 204 11.3 19.3 0.00 0.00 0.00 92 1012.1
20260506214317 11 186 9.7 19.3 0.00 0.00 0.00 92 1012.0
20260506214213 11 198 9.7 19.3 0.00 0.00 0.00 92 1012.0
20260506214126 11 215 8.0 19.3 0.00 0.00 0.00 92 1012.0
20260506214040 11 182 6.4 19.3 0.00 0.00 0.00 92 1012.0
20260506213932 11 188 6.4 19.3 0.00 0.00 0.00 92 1012.0
20260506213824 11 199 8.0 19.3 0.00 0.00 0.00 92 1012.0
20260506213720 11 184 8.0 19.3 0.00 0.00 0.00 92 1012.0
20260506213632 11 178 9.7 19.3 0.00 0.00 0.00 92 1012.1
20260506213523 11 186 9.7 19.3 0.00 0.00 0.00 92 1012.0
20260506213415 11 182 6.4 14.5 0.00 0.00 0.00 92 1012.0
20260506213348 11 182 4.8 14.5 0.00 0.00 0.00 92 1012.0
20260506213220 11 182 6.4 14.5 0.00 0.00 0.00 92 1012.0
20260506213117 11 182 8.0 14.5 0.00 0.00 0.00 92 1012.0
20260506213030 11 182 8.0 14.5 0.00 0.00 0.00 92 1012.0
20260506212922 11 214 8.0 14.5 0.00 0.00 0.00 92 1012.0
20260506212814 11 190 6.4 14.5 0.00 0.00 0.00 92 1012.0
20260506212747 11 182 6.4 11.3 0.00 0.00 0.00 92 1012.0
20260506212619 11 182 6.4 11.3 0.00 0.00 0.00 92 1012.0
20260506212514 11 198 6.4 11.3 0.00 0.00 0.00 92 1012.0
20260506212447 11 207 6.4 11.3 0.00 0.00 0.00 92 1012.0
20260506212318 11 186 8.0 14.5 0.00 0.00 0.00 92 1012.0
20260506212230 11 171 8.0 14.5 0.00 0.00 0.00 92 1012.0
20260506212122 11 173 9.7 14.5 0.00 0.00 0.00 92 1012.0
20260506212020 11 166 8.0 14.5 0.00 0.00 0.00 92 1012.0
20260506211952 11 169 8.0 14.5 0.00 0.00 0.00 92 1012.0
20260506211824 11 169 6.4 14.5 0.00 0.00 0.00 92 1012.0
20260506211717 11 179 4.8 14.5 0.00 0.00 0.00 92 1012.0
20260506211630 11 179 6.4 14.5 0.00 0.00 0.00 92 1012.0
20260506211527 11 178 6.4 14.5 0.00 0.00 0.00 92 1012.0
20260506211419 11 178 8.0 14.5 0.00 0.00 0.00 92 1012.0
20260506211313 11 187 8.0 12.9 0.00 0.00 0.00 92 1012.0
20260506211244 11 186 8.0 12.9 0.00 0.00 0.00 92 1012.0
20260506211116 11 186 8.0 12.9 0.00 0.00 0.00 92 1012.0
20260506211027 11 192 4.8 12.9 0.00 0.00 0.00 92 1012.0
20260506210923 11 168 4.8 11.3 0.00 0.00 0.00 92 1012.0
20260506210814 11 169 6.4 11.3 0.00 0.00 0.00 92 1011.9
20260506210725 11 165 6.4 11.3 0.00 0.00 0.00 92 1011.9
20260506210616 11 188 4.8 11.3 0.00 0.00 0.00 92 1012.0
20260506210530 11 189 4.8 11.3 0.00 0.00 0.00 92 1012.0
20260506210421 12 205 3.2 11.3 0.00 0.00 0.00 92 1012.0
20260506210316 11 164 3.2 16.1 0.00 0.00 0.00 92 1011.9
20260506210228 11 155 3.2 16.1 0.00 0.00 0.00 92 1011.9
20260506210121 11 158 4.8 16.1 0.00 0.00 0.00 92 1012.0
20260506210012 11 157 4.8 16.1 0.00 0.00 0.00 92 1012.0
20260506205924 12 185 4.8 16.1 0.00 0.00 0.00 92 1012.0
20260506205840 12 189 3.2 16.1 0.00 0.00 0.00 92 1012.0
20260506205732 12 189 3.2 16.1 0.00 0.00 0.00 92 1011.9
20260506205624 12 189 3.2 16.1 0.00 0.00 0.00 92 1012.0
20260506205518 12 205 6.4 16.1 0.00 0.00 0.00 92 1012.0
20260506205429 12 203 8.0 16.1 0.00 0.00 0.00 92 1012.0
20260506205321 12 215 4.8 12.9 0.00 0.00 0.00 92 1011.9
20260506205215 12 171 1.6 11.3 0.00 0.00 0.00 92 1011.9
20260506205125 12 151 0.0 11.3 0.00 0.00 0.00 91 1011.9
20260506205017 12 152 1.6 12.9 0.00 0.00 0.00 91 1011.9
20260506204928 12 152 1.6 12.9 0.00 0.00 0.00 91 1011.9
20260506204818 12 105 3.2 19.3 0.00 0.00 0.00 91 1012.0
20260506204729 12 165 3.2 19.3 0.00 0.00 0.00 91 1012.0
20260506204626 12 165 3.2 19.3 0.00 0.00 0.00 91 1011.9
20260506204536 12 180 1.6 19.3 0.00 0.00 0.00 91 1011.9
20260506204447 12 180 1.6 19.3 0.00 0.00 0.00 91 1011.9
20260506204229 12 180 8.0 19.3 0.00 0.00 0.00 91 1011.9
20260506204122 12 170 8.0 19.3 0.00 0.00 0.00 91 1011.9
20260506204014 12 170 8.0 19.3 0.00 0.00 0.00 91 1011.8
20260506203930 12 184 8.0 19.3 0.00 0.00 0.00 91 1011.8
20260506203823 12 186 9.7 19.3 0.00 0.00 0.00 91 1011.8
20260506203715 12 186 6.4 17.7 0.00 0.00 0.00 90 1011.8
20260506203628 12 192 6.4 19.3 0.00 0.00 0.00 90 1011.8
20260506203521 12 257 8.0 19.3 0.00 0.00 0.00 90 1011.9
20260506203437 12 259 11.3 19.3 0.00 0.00 0.00 90 1011.9
20260506203328 12 190 11.3 19.3 0.00 0.00 0.00 90 1011.9
20260506203220 12 184 6.4 19.3 0.00 0.00 0.00 90 1011.9
20260506203113 12 220 6.4 19.3 0.00 0.00 0.00 90 1011.8
20260506203046 12 220 8.0 19.3 0.00 0.00 0.00 90 1011.8
20260506202936 12 226 11.3 19.3 0.00 0.00 0.00 90 1011.8
20260506202831 12 215 11.3 19.3 0.00 0.00 0.00 89 1011.8
20260506202721 12 204 12.9 19.3 0.00 0.00 0.00 89 1011.8
20260506202613 12 187 9.7 17.7 0.00 0.00 0.00 89 1011.7
20260506202527 12 188 9.7 19.3 0.00 0.00 0.00 89 1011.7
20260506202419 12 190 11.3 19.3 0.00 0.00 0.00 89 1011.7
20260506202315 12 224 12.9 19.3 0.00 0.00 0.00 89 1011.7
20260506202228 12 182 11.3 20.9 0.00 0.00 0.00 89 1011.7
20260506202121 12 186 8.0 16.1 0.00 0.00 0.00 89 1011.7
20260506202013 12 186 8.0 16.1 0.00 0.00 0.00 89 1011.7
20260506201926 12 198 8.0 16.1 0.00 0.00 0.00 89 1011.7
20260506201823 12 224 9.7 16.1 0.00 0.00 0.00 89 1011.7
20260506201715 12 202 8.0 17.7 0.00 0.00 0.00 89 1011.7
20260506201628 12 213 6.4 17.7 0.00 0.00 0.00 89 1011.7
20260506201521 12 190 6.4 17.7 0.00 0.00 0.00 89 1011.7
20260506201413 12 190 8.0 17.7 0.00 0.00 0.00 88 1011.6
20260506201330 12 225 8.0 17.7 0.00 0.00 0.00 89 1011.6
20260506201219 12 206 8.0 17.7 0.00 0.00 0.00 89 1011.7
20260506201152 12 244 9.7 17.7 0.00 0.00 0.00 88 1011.6
20260506201023 12 182 9.7 17.7 0.00 0.00 0.00 88 1011.6
20260506200934 12 187 11.3 17.7 0.00 0.00 0.00 88 1011.6
20260506200826 12 209 12.9 17.7 0.00 0.00 0.00 88 1011.6
20260506200722 12 207 11.3 16.1 0.00 0.00 0.00 88 1011.6
20260506200614 12 201 11.3 17.7 0.00 0.00 0.00 88 1011.5
20260506200528 12 206 11.3 17.7 0.00 0.00 0.00 88 1011.5
20260506200440 12 229 11.3 17.7 0.00 0.00 0.00 88 1011.5
20260506200331 12 206 11.3 17.7 0.00 0.00 0.00 88 1011.5
20260506200223 12 228 11.3 17.7 0.00 0.00 0.00 88 1011.5
20260506200120 12 202 9.7 22.5 0.00 0.00 0.00 88 1011.5
20260506200030 12 223 11.3 22.5 0.00 0.00 0.00 88 1011.5
20260506195922 12 221 11.3 22.5 0.00 0.00 0.00 88 1011.4
20260506195834 12 182 9.7 22.5 0.00 0.00 0.00 88 1011.4
20260506195725 12 209 11.3 22.5 0.00 0.00 0.00 88 1011.4
20260506195623 12 209 12.9 22.5 0.00 0.00 0.00 88 1011.4
20260506195515 12 213 14.5 22.5 0.00 0.00 0.00 88 1011.4
20260506195448 12 208 12.9 22.5 0.00 0.00 0.00 88 1011.4
20260506195319 12 209 12.9 22.5 0.00 0.00 0.00 88 1011.4
20260506195230 12 186 12.9 22.5 0.00 0.00 0.00 88 1011.4
20260506195120 12 212 14.5 22.5 0.00 0.00 0.00 88 1011.4
20260506195016 12 211 14.5 22.5 0.00 0.00 0.00 88 1011.3
20260506194947 12 228 12.9 22.5 0.00 0.00 0.00 88 1011.3
20260506194817 12 211 12.9 22.5 0.00 0.00 0.00 88 1011.3
20260506194726 12 212 14.5 22.5 0.00 0.00 0.00 88 1011.3
20260506194620 12 229 16.1 22.5 0.00 0.00 0.00 88 1011.4
20260506194512 12 184 14.5 22.5 0.00 0.00 0.00 88 1011.3
20260506194425 12 182 16.1 24.1 0.00 0.00 0.00 88 1011.3
20260506194322 12 178 14.5 20.9 0.00 0.00 0.00 88 1011.3
20260506194214 12 186 14.5 20.9 0.00 0.00 0.00 88 1011.2
20260506194125 12 230 12.9 19.3 0.00 0.00 0.00 88 1011.2
20260506194019 12 168 11.3 16.1 0.00 0.00 0.00 88 1011.3
20260506193931 12 181 11.3 16.1 0.00 0.00 0.00 88 1011.3
20260506193828 12 217 12.9 16.1 0.00 0.00 0.00 88 1011.2
20260506193721 12 194 11.3 20.9 0.00 0.00 0.00 88 1011.2
20260506193613 12 167 6.4 17.7 0.00 0.00 0.00 88 1011.1
20260506193527 12 184 8.0 17.7 0.00 0.00 0.00 88 1011.1
20260506193419 12 208 8.0 17.7 0.00 0.00 0.00 88 1011.1
20260506193315 12 189 9.7 17.7 0.00 0.00 0.00 88 1011.0
20260506193226 12 202 9.7 17.7 0.00 0.00 0.00 88 1011.0
20260506193119 12 210 9.7 17.7 0.00 0.00 0.00 88 1011.0
20260506193052 12 183 11.3 17.7 0.00 0.00 0.00 88 1011.0
20260506192923 12 188 9.7 16.1 0.00 0.00 0.00 88 1011.0